sat.trackr.live / text

‹ back to catalog

STARLINK-34825

NORAD 65692 · 2025-212S

PAYLOAD ACTIVE UNKNOWN

§ Identity

Operator
Country
US
Launch date
2025-09-21
Launch site
AFETR
Launch vehicle
Mass (kg)
RCS (m²)

Purposes: comms

External: N2YO · Heavens-Above · Gunter

§ Orbital elements

Epoch: 2026-05-24T23:24:41.225760Z

Period
94.10 min
Inclination
53.1604°
Eccentricity
0.0000995
Mean motion
15.30206870 rev/d
Perigee alt
474.5 km
Apogee alt
475.9 km
Semi-major
6,853.3 km
B*
3.9249e-4
RAAN
351.3045°
Arg perigee
75.4679°
Mean anomaly
284.6432°
Rev number
3,891

§ Raw data

STARLINK-348251 65692U 25212S   26144.97547715  .00011286  00000+0  39249-3 0  99992 65692  53.1604 351.3045 0000995  75.4679 284.6432 15.30206870 38913

JSON: /api/v1/satellites/65692 · /tle

For live sub-satellite position, see the globe view (requires WebGL).

§ Visibility from observer

Set your observer location to see the next 7 days of passes ≥ 10°. The values pass through the URL so the page stays shareable.

No JS? Fill the form by hand. The geolocation button needs JavaScript.